Hourly Weather Abakumovo

Today, 31 October, Saturday

Time Temperature Precipitation Wind Pressure Humidity
00:00 +6°C° 0 mm 1 mps 747 mmHg 91%
01:00 +6°C° 0 mm 1 mps 747 mmHg 91%
02:00 +6°C° 0 mm 1 mps 747 mmHg 91%
03:00 +5°C° 0 mm 2 mps 747 mmHg 95%
04:00 +5°C° 0 mm 2 mps 747 mmHg 94%
05:00 +5°C° 0 mm 2 mps 747 mmHg 93%
06:00 +5°C° 0 mm 2 mps 747 mmHg 92%
07:00 +5°C° 0.1 mm 2 mps 747 mmHg 92%
08:00 +4°C° 0.1 mm 3 mps 747 mmHg 92%
09:00 +5°C° 0 mm 3 mps 747 mmHg 92%
10:00 +5°C° 0.1 mm 3 mps 748 mmHg 91%
11:00 +5°C° 0.1 mm 3 mps 748 mmHg 91%
12:00 +5°C° 0.1 mm 3 mps 748 mmHg 90%
13:00 +5°C° 0 mm 3 mps 748 mmHg 89%
14:00 +5°C° 0 mm 3 mps 748 mmHg 88%
15:00 +5°C° 0 mm 3 mps 748 mmHg 87%
16:00 +5°C° 0 mm 3 mps 749 mmHg 87%
17:00 +5°C° 0 mm 3 mps 749 mmHg 87%
18:00 +5°C° 0 mm 4 mps 749 mmHg 88%
19:00 +5°C° 0 mm 4 mps 749 mmHg 88%
20:00 +5°C° 0 mm 4 mps 749 mmHg 89%
21:00 +5°C° 0 mm 4 mps 749 mmHg 89%
22:00 +5°C° 0 mm 4 mps 750 mmHg 90%
23:00 +5°C° 0 mm 4 mps 750 mmHg 91%

Tomorrow, 1 November, Sunday

Time Temperature Precipitation Wind Pressure Humidity
00:00 +4°C° 0 mm 4 mps 750 mmHg 92%
01:00 +3°C° 0 mm 5 mps 750 mmHg 93%
02:00 +3°C° 0 mm 5 mps 750 mmHg 93%
03:00 +3°C° 0 mm 5 mps 750 mmHg 93%
04:00 +3°C° 0 mm 5 mps 750 mmHg 93%
05:00 +3°C° 0 mm 6 mps 750 mmHg 92%
06:00 +3°C° 0 mm 6 mps 750 mmHg 92%
07:00 +3°C° 0 mm 6 mps 750 mmHg 91%
08:00 +3°C° 0 mm 7 mps 750 mmHg 91%
09:00 +3°C° 0 mm 7 mps 750 mmHg 91%
10:00 +3°C° 0.9 mm 7 mps 750 mmHg 91%
11:00 +3°C° 0.9 mm 6 mps 750 mmHg 91%
12:00 +4°C° 0.9 mm 6 mps 750 mmHg 91%
13:00 +4°C° 0.9 mm 6 mps 750 mmHg 92%
14:00 +4°C° 0.9 mm 6 mps 750 mmHg 92%
15:00 +4°C° 0.9 mm 6 mps 750 mmHg 93%
16:00 +5°C° 0.1 mm 5 mps 750 mmHg 93%
17:00 +5°C° 0.1 mm 5 mps 750 mmHg 93%
18:00 +5°C° 0.1 mm 4 mps 750 mmHg 93%
19:00 +5°C° 0 mm 4 mps 750 mmHg 93%
20:00 +5°C° 0 mm 4 mps 750 mmHg 94%
21:00 +5°C° 0 mm 3 mps 750 mmHg 94%
22:00 +5°C° 0 mm 3 mps 750 mmHg 94%
23:00 +5°C° 0 mm 3 mps 750 mmHg 95%

Day after tomorrow, 2 November, Monday

Time Temperature Precipitation Wind Pressure Humidity
00:00 +5°C° 0 mm 3 mps 749 mmHg 96%
01:00 +5°C° 0 mm 3 mps 749 mmHg 95%
02:00 +5°C° 0 mm 3 mps 749 mmHg 95%
03:00 +7°C° 0 mm 3 mps 749 mmHg 94%
04:00 +7°C° 0 mm 3 mps 749 mmHg 94%
05:00 +5°C° 0 mm 3 mps 749 mmHg 94%
06:00 +5°C° 0 mm 3 mps 749 mmHg 94%
07:00 +5°C° 0 mm 4 mps 749 mmHg 94%
08:00 +5°C° 0 mm 4 mps 749 mmHg 94%
09:00 +5°C° 0 mm 5 mps 749 mmHg 94%
10:00 +5°C° 0 mm 5 mps 749 mmHg 91%
11:00 +6°C° 0 mm 5 mps 749 mmHg 89%
12:00 +6°C° 0 mm 5 mps 749 mmHg 87%
13:00 +6°C° 0.2 mm 4 mps 749 mmHg 86%
14:00 +7°C° 0.2 mm 4 mps 749 mmHg 85%
15:00 +7°C° 0.2 mm 4 mps 749 mmHg 84%
16:00 +6°C° 0.1 mm 4 mps 749 mmHg 85%
17:00 +6°C° 0.1 mm 4 mps 749 mmHg 86%
18:00 +6°C° 0.1 mm 4 mps 749 mmHg 87%
19:00 +5°C° 0 mm 4 mps 749 mmHg 89%
20:00 +5°C° 0 mm 3 mps 750 mmHg 91%
21:00 +4°C° 0 mm 3 mps 750 mmHg 93%
22:00 +4°C° 0 mm 3 mps 750 mmHg 94%
23:00 +4°C° 0 mm 3 mps 750 mmHg 95%

3 November, Tuesday

Time Temperature Precipitation Wind Pressure Humidity
00:00 +4°C° 0 mm 4 mps 750 mmHg 95%
01:00 +4°C° 0 mm 4 mps 750 mmHg 95%
02:00 +4°C° 0 mm 4 mps 750 mmHg 95%
03:00 +3°C° 0 mm 4 mps 750 mmHg 95%
04:00 +3°C° 0 mm 4 mps 750 mmHg 95%
05:00 +3°C° 0 mm 4 mps 750 mmHg 95%
06:00 +3°C° 0 mm 3 mps 750 mmHg 95%
07:00 +3°C° 0 mm 3 mps 751 mmHg 94%
08:00 +4°C° 0 mm 3 mps 751 mmHg 92%
09:00 +4°C° 0 mm 3 mps 751 mmHg 91%
10:00 +4°C° 0.1 mm 3 mps 751 mmHg 89%
11:00 +5°C° 0.1 mm 3 mps 752 mmHg 88%
12:00 +5°C° 0.1 mm 3 mps 752 mmHg 86%
13:00 +7°C° 0 mm 3 mps 752 mmHg 86%
14:00 +7°C° 0 mm 3 mps 752 mmHg 85%
15:00 +7°C° 0 mm 3 mps 752 mmHg 85%
16:00 +7°C° 0 mm 2 mps 752 mmHg 87%
17:00 +6°C° 0 mm 2 mps 752 mmHg 90%
18:00 +5°C° 0 mm 2 mps 752 mmHg 92%
19:00 +5°C° 0 mm 2 mps 752 mmHg 92%
20:00 +5°C° 0 mm 2 mps 753 mmHg 93%
21:00 +6°C° 0 mm 1 mps 753 mmHg 93%
22:00 +6°C° 0 mm 1 mps 753 mmHg 93%
23:00 +6°C° 0 mm 1 mps 753 mmHg 93%

4 November, Wednesday

Time Temperature Precipitation Wind Pressure Humidity
00:00 +6°C° 0 mm 1 mps 753 mmHg 93%
01:00 +6°C° 0 mm 1 mps 753 mmHg 93%
02:00 +6°C° 0 mm 1 mps 753 mmHg 93%
03:00 +6°C° 0 mm 1 mps 754 mmHg 93%
04:00 +7°C° 0 mm 1 mps 754 mmHg 93%
05:00 +7°C° 0 mm 1 mps 754 mmHg 92%
06:00 +7°C° 0 mm 1 mps 754 mmHg 92%
07:00 +7°C° 0 mm 1 mps 754 mmHg 91%
08:00 +8°C° 0 mm 1 mps 754 mmHg 91%
09:00 +8°C° 0 mm 1 mps 755 mmHg 90%
10:00 +8°C° 0 mm 1 mps 755 mmHg 88%
11:00 +9°C° 0 mm 1 mps 755 mmHg 85%
12:00 +10°C° 0 mm 1 mps 755 mmHg 83%
13:00 +10°C° 0 mm 1 mps 755 mmHg 83%
14:00 +10°C° 0 mm 1 mps 755 mmHg 83%
15:00 +11°C° 0 mm 1 mps 755 mmHg 83%
16:00 +10°C° 0 mm 1 mps 755 mmHg 86%
17:00 +9°C° 0 mm 1 mps 755 mmHg 89%
18:00 +8°C° 0 mm 1 mps 755 mmHg 92%
19:00 +8°C° 0 mm 1 mps 755 mmHg 92%
20:00 +7°C° 0 mm 2 mps 755 mmHg 93%
21:00 +6°C° 0 mm 2 mps 755 mmHg 93%
22:00 +6°C° 0 mm 2 mps 755 mmHg 94%
23:00 +6°C° 0 mm 2 mps 755 mmHg 94%

5 November, Thursday

Time Temperature Precipitation Wind Pressure Humidity
00:00 +6°C° 0 mm 2 mps 755 mmHg 94%
01:00 +6°C° 0 mm 2 mps 755 mmHg 94%
02:00 +4°C° 0 mm 3 mps 755 mmHg 94%
03:00 +4°C° 0 mm 3 mps 754 mmHg 94%
04:00 +4°C° 0 mm 3 mps 754 mmHg 94%
05:00 +4°C° 0 mm 3 mps 754 mmHg 95%
06:00 +4°C° 0 mm 3 mps 754 mmHg 95%
07:00 +4°C° 0.1 mm 3 mps 754 mmHg 94%
08:00 +5°C° 0.1 mm 3 mps 754 mmHg 93%
09:00 +5°C° 0.1 mm 4 mps 754 mmHg 92%
10:00 +5°C° 0.2 mm 4 mps 754 mmHg 92%
11:00 +5°C° 0.2 mm 3 mps 754 mmHg 92%
12:00 +7°C° 0.2 mm 3 mps 754 mmHg 93%
13:00 +7°C° 0 mm 3 mps 754 mmHg 88%
14:00 +8°C° 0 mm 3 mps 754 mmHg 84%
15:00 +8°C° 0 mm 3 mps 754 mmHg 80%
16:00 +7°C° 0 mm 3 mps 754 mmHg 81%
17:00 +5°C° 0 mm 3 mps 754 mmHg 83%
18:00 +5°C° 0 mm 2 mps 754 mmHg 85%
19:00 +4°C° 0 mm 3 mps 754 mmHg 87%
20:00 +3°C° 0 mm 3 mps 754 mmHg 89%
21:00 +3°C° 0 mm 3 mps 755 mmHg 92%
22:00 +3°C° 0 mm 3 mps 755 mmHg 90%
23:00 +3°C° 0 mm 3 mps 755 mmHg 89%
Show more